[[{"header":{"parameterUnit":"m.s-1","parameterCategory":1,"la1":30.2991,"la2":30.254,"lo1":-89.0895,"lo2":-89.0444,"dy":0.0017,"dx":0.0017,"nx":28,"ny":28,"refTime":"2024-07-17T21:00:00:Z","depth":0,"parameterNumber":2,"parameterNumberName":"U-component_of_WINDS"},"data":[0,0,0,0,0,0,0,0,0,0,0,0,0,0,0,0,0,0,0,0,0,0,0,0,0,0,0,0,0,0,0,0,0,0,0,0,0,0,0,0,0,0,0,0,0,0,0,0,0,0,0,0,0,0,0,0,0,0,1.7623,1.7623,0,1.7677,1.7678,1.7679,1.7695,1.7695,1.7695,1.7695,1.775,1.7751,1.7753,0,0,0,0,0,0,0,0,0,0,0,0,0,1.7534,1.7535,1.7623,1.7623,1.7624,1.7677,1.7678,1.7679,1.7695,1.7695,1.7695,1.7695,1.7749,1.7751,1.7753,0,0,0,0,0,0,0,0,0,0,0,0,0,1.7579,1.7536,1.7623,1.7639,1.7641,1.7677,1.7678,1.7679,1.7696,1.7695,1.7695,1.7694,1.7749,1.7751,1.7754,1.7777,0,0,1.7761,1.7763,0,0,0,0,0,0,0,0,1.7576,1.7582,1.7636,1.7638,1.764,1.7679,1.7667,1.7712,1.7696,1.7675,1.7695,1.7694,1.7727,1.7731,1.7742,1.778,1.7782,1.7762,1.7763,1.7764,1.7765,0,0,0,0,0,0,0,1.7573,1.758,1.7644,1.7637,1.7639,1.7644,1.765,1.7675,1.7702,1.7677,1.7678,1.7684,1.7728,1.7739,1.7743,1.7783,1.7762,1.7764,1.7765,1.7766,1.7845,1.7845,0,0,0,0,0,0,1.7567,1.7577,1.7643,1.7646,1.7607,1.7646,1.7652,1.7667,1.7702,1.7707,1.7684,1.7685,1.7735,1.774,1.7745,1.7776,1.7764,1.7767,1.7768,1.7844,1.7845,1.7846,0,0,0,0,0,0,1.7565,1.7573,1.764,1.7612,1.7621,1.7648,1.7664,1.7668,1.768,1.7708,1.7713,1.7692,1.7735,1.7742,1.777,1.7778,1.7768,1.777,1.7844,1.7845,1.7845,1.7838,0,0,0,0,0,0,1.7562,1.7572,1.7581,1.7612,1.7622,1.7663,1.7665,1.767,1.7685,1.7686,1.7716,1.7721,1.7735,1.7766,1.7772,1.7782,1.7772,1.7843,1.7844,1.7845,1.7837,1.7838,1.7839,0,0,0,0,0,1.7559,1.7576,1.7581,1.7589,1.7634,1.7664,1.767,1.7687,1.7685,1.7695,1.7713,1.772,1.7777,1.7768,1.7776,1.7786,1.7843,1.7844,1.7845,1.7837,1.7838,1.7839,0,0,0,0,0,0,1.7545,1.758,1.7586,1.7614,1.7636,1.7667,1.7679,1.7687,1.771,1.7709,1.7729,1.7736,1.7763,1.7777,1.7768,1.7812,1.781,1.7813,1.7801,1.7802,1.7803,1.7799,1.7774,0,0,0,0,0,1.7545,1.7566,1.7596,1.7617,1.7628,1.7652,1.7665,1.7677,1.77,1.7709,1.7729,1.7752,1.7775,1.779,1.7812,1.784,1.7847,1.7851,1.7852,1.7852,1.7854,1.7871,1.7873,1.785,1.785,1.785,0,0,1.7545,1.7567,1.7579,1.7615,1.7633,1.7655,1.7659,1.7682,1.7698,1.7713,1.774,1.7756,1.7783,1.7811,1.7824,1.7824,1.7862,1.7854,1.7854,1.7856,1.7872,1.7874,1.7876,1.785,1.785,1.785,0,0,1.7556,1.7575,1.7595,1.7614,1.7642,1.7658,1.7663,1.7693,1.7704,1.7733,1.7744,1.7764,1.7803,1.7822,1.7837,1.7857,1.7864,1.7864,1.7868,1.7884,1.7886,1.7888,1.7895,1.7898,1.7866,1.7866,1.7866,0,1.7552,1.7586,1.7604,1.7627,1.7643,1.7658,1.7679,1.7696,1.773,1.7741,1.774,1.7791,1.7809,1.7842,1.7848,1.7859,1.7866,1.786,1.7884,1.7886,1.7888,1.7895,1.7898,1.7866,1.7866,1.7866,1.7866,0,1.758,1.7603,1.7616,1.7649,1.7667,1.7688,1.7711,1.7727,1.7737,1.7753,1.7783,1.7806,1.7834,1.7843,1.7853,1.7878,1.7877,1.788,1.7878,1.789,1.7897,1.79,1.7866,1.7866,1.7866,1.7866,0,0,1.7582,1.7627,1.7631,1.7647,1.768,1.7698,1.7721,1.7749,1.7763,1.7786,1.7806,1.784,1.7843,1.786,1.7872,1.7887,1.7902,1.7888,1.7889,1.789,1.7932,1.7929,1.7932,1.7908,1.7908,1.7909,1.793,0,1.7597,1.7639,1.7657,1.769,1.7712,1.7728,1.7748,1.7771,1.7787,1.7808,1.7826,1.785,1.7853,1.7863,1.7878,1.7897,1.7911,1.7896,1.7926,1.7927,1.7919,1.7936,1.7933,1.7951,1.7933,1.7933,1.7934,0,1.762,1.7645,1.768,1.7712,1.7722,1.774,1.7768,1.7788,1.7814,1.7825,1.7845,1.7857,1.7883,1.788,1.7915,1.7905,1.7919,1.793,1.7931,1.7934,1.793,1.7939,1.7957,1.796,1.7938,1.7938,1.7938,0,1.7618,1.766,1.7687,1.77,1.7738,1.775,1.7766,1.7793,1.7809,1.7834,1.7845,1.7872,1.7887,1.7908,1.7927,1.7923,1.7961,1.796,1.7971,1.797,1.7977,1.7976,1.7998,1.7987,1.7987,1.7987,1.7987,0,1.7633,1.7654,1.7687,1.7703,1.7728,1.775,1.7773,1.7791,1.7814,1.7835,1.785,1.7869,1.7894,1.7917,1.7932,1.7959,1.7966,1.7976,1.7979,1.7974,1.7973,1.7983,1.7982,1.7987,1.7987,1.7987,1.7987,0,1.7635,1.7657,1.7688,1.7722,1.7731,1.7747,1.7776,1.7793,1.7811,1.7837,1.7844,1.7872,1.7899,1.7921,1.7957,1.7967,1.7996,1.8,1.7987,1.7989,1.7998,1.7997,1.8026,1.8031,1.8017,1.8017,1.8018,0,1.7642,1.7659,1.7696,1.7711,1.7727,1.7751,1.7768,1.7791,1.7808,1.784,1.7853,1.7882,1.7906,1.7949,1.7972,1.7999,1.8005,1.8013,1.8009,1.8003,1.8005,1.8003,1.8005,1.8013,1.8013,1.8013,1.8013,0,1.7654,1.7665,1.7689,1.7718,1.7738,1.7761,1.7785,1.7797,1.7824,1.7842,1.7871,1.7889,1.7926,1.7954,1.7985,1.8002,1.8012,1.8015,1.8019,1.8013,1.8004,1.8009,1.7988,1.8014,1.8014,1.8014,1.8014,1.8014,1.7659,1.7675,1.7704,1.773,1.7751,1.7773,1.7791,1.7812,1.7836,1.7868,1.788,1.7909,1.7937,1.7979,1.7996,1.8019,1.802,1.8026,1.8027,1.8028,1.8028,1.8001,1.8025,1.8025,1.8025,1.8025,1.8025,0,1.7672,1.7691,1.7716,1.7749,1.777,1.7779,1.7806,1.7824,1.7849,1.7874,1.7898,1.7931,1.7959,1.7985,1.8014,1.8028,1.8034,1.8035,1.8034,1.8038,1.8025,1.8019,1.803,1.803,1.803,1.803,1.803,1.803,1.768,1.7708,1.7723,1.7762,1.7781,1.781,1.7825,1.7846,1.7866,1.7903,1.7926,1.7943,1.7969,1.8001,1.8027,1.8034,1.8044,1.8044,1.8052,1.804,1.8039,1.8038,1.8032,1.8046,1.8046,1.8063,1.8063,1.8063]},{"header":{"parameterUnit":"m.s-1","parameterCategory":1,"la1":30.2991,"la2":30.254,"lo1":-89.0895,"lo2":-89.0444,"dy":0.0017,"dx":0.0017,"nx":28,"ny":28,"refTime":"2024-07-17T21:00:00:Z","depth":0,"parameterNumber":3,"parameterNumberName":"V-component_of_WINDS"},"data":[0,0,0,0,0,0,0,0,0,0,0,0,0,0,0,0,0,0,0,0,0,0,0,0,0,0,0,0,0,0,0,0,0,0,0,0,0,0,0,0,0,0,0,0,0,0,0,0,0,0,0,0,0,0,0,0,0,0,0.4543,0.4542,0,0.4455,0.4454,0.4453,0.4428,0.4429,0.4429,0.443,0.4337,0.4334,0.4331,0,0,0,0,0,0,0,0,0,0,0,0,0,0.4687,0.4685,0.4543,0.4542,0.4541,0.4455,0.4454,0.4453,0.4428,0.4429,0.4429,0.443,0.4338,0.4334,0.4331,0,0,0,0,0,0,0,0,0,0,0,0,0,0.4615,0.4684,0.4544,0.4518,0.4515,0.4456,0.4454,0.4453,0.4428,0.4429,0.4429,0.443,0.4339,0.4334,0.433,0.4288,0,0,0.4317,0.4315,0,0,0,0,0,0,0,0,0.4619,0.4609,0.4523,0.452,0.4516,0.4454,0.4471,0.4398,0.4428,0.4461,0.443,0.443,0.4375,0.4367,0.4349,0.4284,0.428,0.4316,0.4314,0.4312,0.4311,0,0,0,0,0,0,0,0.4624,0.4613,0.4508,0.4522,0.4518,0.4511,0.4501,0.4457,0.4415,0.4458,0.4456,0.4446,0.4373,0.4354,0.4347,0.4279,0.4316,0.4313,0.431,0.4308,0.4174,0.4173,0,0,0,0,0,0,0.4633,0.4617,0.4511,0.4506,0.4571,0.4508,0.4497,0.4473,0.4415,0.4407,0.4446,0.4445,0.4361,0.4352,0.4344,0.429,0.4312,0.4308,0.4305,0.4175,0.4174,0.4173,0,0,0,0,0,0,0.4637,0.4624,0.4515,0.4561,0.4547,0.4504,0.4478,0.4471,0.4451,0.4406,0.4398,0.4434,0.4361,0.435,0.4302,0.4287,0.4306,0.4302,0.4176,0.4175,0.4173,0.4184,0,0,0,0,0,0,0.4641,0.4626,0.461,0.4561,0.4544,0.4476,0.4477,0.4469,0.4444,0.4443,0.4392,0.4385,0.4361,0.4309,0.4298,0.4281,0.4298,0.4177,0.4175,0.4174,0.4185,0.4183,0.4182,0,0,0,0,0,0.4646,0.4616,0.4609,0.4597,0.4524,0.4475,0.4465,0.4439,0.4443,0.4426,0.4397,0.4386,0.4291,0.4304,0.4292,0.4273,0.4178,0.4176,0.4174,0.4186,0.4184,0.4182,0,0,0,0,0,0,0.4663,0.4609,0.4601,0.4554,0.452,0.4471,0.4449,0.4438,0.4401,0.4401,0.4369,0.4358,0.4313,0.4288,0.4305,0.423,0.4234,0.4229,0.4247,0.4245,0.4243,0.425,0.4295,0,0,0,0,0,0.4662,0.4628,0.4582,0.4545,0.4528,0.4492,0.447,0.4452,0.4415,0.44,0.4367,0.433,0.4292,0.4267,0.4229,0.4182,0.417,0.4162,0.4161,0.416,0.4156,0.4128,0.4125,0.4166,0.4166,0.4166,0,0,0.4658,0.4624,0.4604,0.4547,0.4519,0.4483,0.4479,0.4442,0.4415,0.4394,0.4347,0.4322,0.4279,0.4231,0.4208,0.4209,0.4142,0.4157,0.4157,0.4153,0.4126,0.4122,0.4119,0.4165,0.4165,0.4165,0,0,0.4633,0.4604,0.457,0.4541,0.4498,0.4474,0.4466,0.4419,0.4402,0.4355,0.4338,0.4305,0.424,0.4209,0.4186,0.4149,0.4138,0.4138,0.4129,0.4103,0.41,0.4096,0.4083,0.4078,0.4134,0.4134,0.4134,0,0.4633,0.458,0.4554,0.4517,0.4492,0.4472,0.4437,0.441,0.4357,0.4339,0.4342,0.4259,0.4228,0.4173,0.4164,0.4146,0.4135,0.4143,0.4102,0.4099,0.4096,0.4082,0.4077,0.4134,0.4134,0.4134,0.4134,0,0.4582,0.4545,0.4523,0.4473,0.4445,0.441,0.4377,0.4353,0.4338,0.4314,0.4266,0.4228,0.4182,0.4168,0.4153,0.411,0.4112,0.4109,0.4112,0.4092,0.4079,0.4074,0.4135,0.4135,0.4135,0.4135,0,0,0.4565,0.4501,0.4493,0.447,0.4421,0.4391,0.4354,0.431,0.429,0.4253,0.4221,0.4166,0.4163,0.4136,0.4117,0.4094,0.4067,0.4093,0.4091,0.4089,0.4017,0.4019,0.4014,0.4059,0.4058,0.4057,0.402,0,0.4533,0.4467,0.4443,0.4389,0.4354,0.4335,0.4302,0.4268,0.4245,0.4211,0.4185,0.4146,0.4145,0.4128,0.4104,0.4075,0.4052,0.4077,0.4027,0.4026,0.4038,0.4007,0.4009,0.3976,0.4015,0.4014,0.4013,0,0.4487,0.4451,0.4394,0.4349,0.4333,0.4305,0.4263,0.4231,0.4192,0.4176,0.4146,0.4129,0.4089,0.4096,0.4039,0.4057,0.4035,0.4018,0.4016,0.401,0.4018,0.3999,0.3965,0.396,0.4005,0.4006,0.4006,0,0.4479,0.4416,0.4374,0.4355,0.4302,0.4282,0.4259,0.422,0.4196,0.4158,0.4141,0.41,0.4077,0.4044,0.4016,0.4024,0.3962,0.3966,0.3947,0.3947,0.3934,0.3935,0.3895,0.3921,0.3921,0.3921,0.3921,0,0.4446,0.4411,0.437,0.4344,0.4304,0.4276,0.4238,0.4213,0.4179,0.4147,0.4128,0.4098,0.4062,0.4028,0.4005,0.3962,0.3951,0.3937,0.3931,0.3938,0.394,0.3923,0.3924,0.392,0.392,0.3921,0.3921,0,0.443,0.4401,0.4354,0.4308,0.4295,0.4268,0.4228,0.4201,0.4177,0.4137,0.4126,0.4087,0.4045,0.4014,0.396,0.3945,0.3898,0.3892,0.3911,0.3908,0.389,0.3892,0.3838,0.3829,0.3861,0.3861,0.3861,0,0.4411,0.4384,0.4335,0.4313,0.429,0.4254,0.4229,0.42,0.4174,0.4128,0.4106,0.4064,0.4028,0.3962,0.3928,0.3886,0.3879,0.3863,0.3872,0.388,0.3878,0.3879,0.3876,0.3861,0.3861,0.3861,0.3861,0,0.4379,0.4366,0.4331,0.429,0.4261,0.4228,0.4194,0.4177,0.4141,0.4113,0.4071,0.4043,0.3988,0.3945,0.39,0.3875,0.3861,0.3858,0.3851,0.3858,0.387,0.3862,0.3907,0.3859,0.3859,0.3859,0.386,0.386,0.436,0.4335,0.4297,0.4258,0.423,0.4199,0.4172,0.4145,0.4109,0.4063,0.4048,0.4003,0.3964,0.3902,0.3877,0.3841,0.3841,0.3831,0.3829,0.3827,0.3827,0.3876,0.3833,0.3833,0.3833,0.3833,0.3833,0,0.4326,0.4301,0.4266,0.422,0.4189,0.4181,0.4143,0.4117,0.4079,0.4044,0.401,0.3961,0.3919,0.3883,0.3839,0.3818,0.3811,0.3807,0.3808,0.3802,0.383,0.384,0.3814,0.3814,0.3814,0.3814,0.3814,0.3814,0.4305,0.4263,0.4245,0.4188,0.4163,0.412,0.4099,0.407,0.4042,0.3989,0.3955,0.3932,0.3896,0.385,0.3811,0.3801,0.3786,0.3784,0.3772,0.3798,0.3801,0.3803,0.3812,0.3781,0.3781,0.3748,0.3748,0.3747]}]]